|
NORAD ID: 31391 Int'l Code: 2006-029D
Perigee: 519.3 km
Apogee: 543.6 km
Inclination: 64.5 °
Period: 95.1 minutes
Semi major axis: 6902 km
Launch date: July 12, 2006
Source: Commonwealth of Independent States (former USSR) (CIS)
Note: This is SATELLITE DEBRIS
Two Line Element Set (TLE):
1 31391U 06029D 13126.26120308 .00004470 00000-0 25556-3 0 7235
2 31391 064.5118 065.4215 0017580 278.5206 081.3922 15.13894008361800
Source:
NASA's NSSDC Master Catalog entry for SL-24 DEB
|